User: anonymous   Login
Location: Unspecified
(0.0000°N, 0.0000°E)
Time: 03:17:28
(UTC+02:00)
Language:

deb Ariane - Orbit

View from above orbital plane
View from above orbital plane
View from above satellite
View from above satellite

Ground track
Ground track

The orbit data is extracted from the following two-line orbital elements,

1 25668U 92060E   15086.57321446  .40265433 -30201-4  89262-3 0  9994
2 25668 007.4375 018.7552 0388530 281.8156 266.6303 15.64023907266222
Epoch (UTC): 27 March 2015 13:45:25
Eccentricity: 0.0388530
inclination: 7.4375°
perigee height: 113 km
apogee height: 638 km
right ascension of ascending node: 18.7552°
argument of perigee: 281.8156°
revolutions per day: 15.64023907
mean anomaly at epoch: 266.6303°
orbit number at epoch: 26622

The dashed part of the orbit path shows where the satellite is in the earth's shadow,  

DLR